星链-1894 (STARLINK-1894 )

导读 | 豆包AI

STARLINK-1894是美国太空探索技术公司 SpaceX 星链互联网卫星星座的一员,由美国于2020年10月24日发射升空。星链旨在为全球提供高速低延迟互联网覆盖,该卫星加入星座后,进一步扩充了星链低轨卫星网络,助力服务覆盖范围与网络稳定性的提升。

基本信息
目录编号:
46744
目录名称:
STARLINK-1894
国际标识:
2020-074F
轨道中心:
EARTH
卫星名称:
星链-1894
卫星全名:
星链-1894 (STARLINK-1894 )
卫星状态:
在轨 (已飞行1967 天)
发射日期:
2020-10-24 UTC
国别 :
美国 (US)
星等 :
--
轨道信息
数据来源 国际轨道数据
星历时间: 2026-03-14T08:00:02+0800
10小时前
查看轨道信息
半长轴: 6701.432km
偏心率: 0.0003995
轨道倾角: 53.041°
近地点辐角 305.297°
升交点赤经 256.073°
平近点角 95.885°
近地点: 320.617km
远地点: 325.973km
周期: 90.994分钟
每日圈数: 15.82528
详细信息
固有亮度:
5
最大亮度:
2.5
卫星平台:
Starlink V1.0
覆盖范围:
全球
运营商:
太空探索技术公司
运营商所在国:
美国
制造商(研发单位):
太空探索技术公司
制造商所在国:
美国
使用方式:
暂无
卫星简介
星链(Starlink)计划是由太空探索技术公司(SpaceX)提出的一个巨型低轨卫星互联网星座项目,计划在2019年至2024年间在太空搭建由约1.2万颗卫星组成的“星链”网络,其中1584颗将部署在地球上空550千米处的近地轨道,并从2020年开始工作。该卫星仍在工作。
2D轨道图
3D轨道图
轨道高度分析图
轨道倾角分析图
轨道综合分析图
查看轨道综合分析图